When you browse on this site, cookies collect data to enhance your experience and personalize the content and advertising you see.
Visit our Privacy Policy to learn more. By continuing to use the site, you agree to this use of cookies and data.
  • en Suisse
  • Liste des pays
  • À 7 jours
  • Température de l'eau
  • Carte météo
  • Widgets météo
  • user-avatar
    Se connecter

    Météo par heure à Manchester

    Ce jour, 18 Septembre, Mercredi

    Heure Température Précipitation Vent Pression Humidité
    00:00 +10°C° 0 mm 1 m/s 766 mmHg 81%
    01:00 +10°C° 0 mm 1 m/s 766 mmHg 82%
    02:00 +10°C° 0 mm 1 m/s 766 mmHg 82%
    03:00 +10°C° 0 mm 1 m/s 766 mmHg 83%
    04:00 +10°C° 0 mm 1 m/s 766 mmHg 84%
    05:00 +9°C° 0 mm 1 m/s 767 mmHg 85%
    06:00 +9°C° 0 mm 1 m/s 767 mmHg 86%
    07:00 +11°C° 0 mm 1 m/s 767 mmHg 81%
    08:00 +12°C° 0 mm 1 m/s 767 mmHg 76%
    09:00 +14°C° 0 mm 1 m/s 767 mmHg 72%
    10:00 +15°C° 0 mm 1 m/s 767 mmHg 67%
    11:00 +16°C° 0 mm 2 m/s 767 mmHg 63%
    12:00 +18°C° 0 mm 2 m/s 767 mmHg 58%
    13:00 +18°C° 0 mm 2 m/s 767 mmHg 60%
    14:00 +18°C° 0 mm 3 m/s 767 mmHg 62%
    15:00 +18°C° 0 mm 3 m/s 767 mmHg 64%
    16:00 +17°C° 0 mm 3 m/s 766 mmHg 69%
    17:00 +16°C° 0 mm 2 m/s 766 mmHg 75%
    18:00 +15°C° 0 mm 2 m/s 766 mmHg 81%
    19:00 +14°C° 0 mm 2 m/s 767 mmHg 83%
    20:00 +13°C° 0 mm 1 m/s 767 mmHg 85%
    21:00 +13°C° 0 mm 1 m/s 767 mmHg 87%
    22:00 +13°C° 0 mm 1 m/s 767 mmHg 88%
    23:00 +12°C° 0 mm 1 m/s 767 mmHg 88%

    Demain, 19 Septembre, Jeudi

    Heure Température Précipitation Vent Pression Humidité
    00:00 +11°C° 0 mm 0 m/s 767 mmHg 89%
    01:00 +11°C° 0 mm 0 m/s 767 mmHg 89%
    02:00 +11°C° 0 mm 0 m/s 767 mmHg 89%
    03:00 +11°C° 0 mm 0 m/s 767 mmHg 89%
    04:00 +11°C° 0 mm 0 m/s 767 mmHg 90%
    05:00 +10°C° 0 mm 0 m/s 767 mmHg 90%
    06:00 +10°C° 0 mm 0 m/s 767 mmHg 91%
    07:00 +12°C° 0 mm 0 m/s 767 mmHg 86%
    08:00 +13°C° 0 mm 0 m/s 767 mmHg 81%
    09:00 +15°C° 0 mm 0 m/s 768 mmHg 77%
    10:00 +18°C° 0 mm 1 m/s 768 mmHg 72%
    11:00 +20°C° 0 mm 1 m/s 767 mmHg 68%
    12:00 +21°C° 0 mm 1 m/s 767 mmHg 63%
    13:00 +21°C° 0 mm 1 m/s 767 mmHg 62%
    14:00 +22°C° 0 mm 1 m/s 767 mmHg 61%
    15:00 +22°C° 0 mm 1 m/s 767 mmHg 60%
    16:00 +21°C° 0 mm 1 m/s 766 mmHg 66%
    17:00 +20°C° 0 mm 1 m/s 766 mmHg 71%
    18:00 +18°C° 0 mm 1 m/s 766 mmHg 77%
    19:00 +16°C° 0 mm 0 m/s 766 mmHg 79%
    20:00 +15°C° 0 mm 0 m/s 766 mmHg 81%
    21:00 +14°C° 0 mm 0 m/s 767 mmHg 83%
    22:00 +14°C° 0 mm 0 m/s 766 mmHg 84%
    23:00 +14°C° 0 mm 0 m/s 766 mmHg 84%

    Après-demain, 20 Septembre, Vendredi

    Heure Température Précipitation Vent Pression Humidité
    00:00 +13°C° 0 mm 0 m/s 766 mmHg 85%
    01:00 +14°C° 0 mm 1 m/s 766 mmHg 85%
    02:00 +14°C° 0 mm 1 m/s 766 mmHg 86%
    03:00 +14°C° 0 mm 1 m/s 765 mmHg 86%
    04:00 +13°C° 0 mm 1 m/s 765 mmHg 86%
    05:00 +13°C° 0 mm 1 m/s 764 mmHg 86%
    06:00 +13°C° 0 mm 1 m/s 764 mmHg 87%
    07:00 +14°C° 0 mm 2 m/s 764 mmHg 81%
    08:00 +16°C° 0 mm 2 m/s 764 mmHg 76%
    09:00 +17°C° 0 mm 2 m/s 764 mmHg 71%
    10:00 +18°C° 0 mm 3 m/s 763 mmHg 69%
    11:00 +19°C° 0 mm 4 m/s 763 mmHg 66%
    12:00 +20°C° 0 mm 4 m/s 763 mmHg 64%
    13:00 +20°C° 0 mm 5 m/s 762 mmHg 64%
    14:00 +20°C° 0 mm 5 m/s 761 mmHg 64%
    15:00 +20°C° 0 mm 5 m/s 760 mmHg 64%
    16:00 +19°C° 0 mm 5 m/s 760 mmHg 67%
    17:00 +17°C° 0 mm 5 m/s 759 mmHg 70%
    18:00 +16°C° 0 mm 5 m/s 759 mmHg 73%
    19:00 +16°C° 0 mm 5 m/s 759 mmHg 71%
    20:00 +15°C° 0 mm 6 m/s 759 mmHg 69%
    21:00 +14°C° 0 mm 6 m/s 759 mmHg 67%
    22:00 +14°C° 0 mm 6 m/s 758 mmHg 69%
    23:00 +13°C° 0 mm 5 m/s 757 mmHg 71%

    21 Septembre, Samedi

    Heure Température Précipitation Vent Pression Humidité
    00:00 +13°C° 0 mm 5 m/s 757 mmHg 73%
    01:00 +12°C° 0 mm 5 m/s 756 mmHg 75%
    02:00 +12°C° 0 mm 5 m/s 756 mmHg 76%
    03:00 +12°C° 0 mm 5 m/s 755 mmHg 78%
    04:00 +12°C° 0 mm 5 m/s 755 mmHg 77%
    05:00 +12°C° 0 mm 4 m/s 754 mmHg 76%
    06:00 +12°C° 0 mm 4 m/s 754 mmHg 75%
    07:00 +13°C° 0 mm 5 m/s 754 mmHg 71%
    08:00 +14°C° 0 mm 5 m/s 753 mmHg 66%
    09:00 +15°C° 0 mm 5 m/s 753 mmHg 62%
    10:00 +16°C° 0 mm 5 m/s 753 mmHg 60%
    11:00 +19°C° 0 mm 5 m/s 752 mmHg 58%
    12:00 +20°C° 0 mm 5 m/s 752 mmHg 55%
    13:00 +20°C° 0 mm 5 m/s 751 mmHg 56%
    14:00 +21°C° 0 mm 5 m/s 751 mmHg 57%
    15:00 +22°C° 0 mm 5 m/s 750 mmHg 57%
    16:00 +21°C° 0.1 mm 5 m/s 750 mmHg 60%
    17:00 +20°C° 0.1 mm 5 m/s 750 mmHg 63%
    18:00 +19°C° 0.1 mm 4 m/s 749 mmHg 66%
    19:00 +18°C° 0.2 mm 4 m/s 749 mmHg 67%
    20:00 +18°C° 0.2 mm 4 m/s 749 mmHg 69%
    21:00 +17°C° 0.2 mm 4 m/s 749 mmHg 71%
    22:00 +17°C° 0.3 mm 3 m/s 748 mmHg 73%
    23:00 +17°C° 0.3 mm 3 m/s 748 mmHg 76%

    22 Septembre, Dimanche

    Heure Température Précipitation Vent Pression Humidité
    00:00 +16°C° 0.3 mm 3 m/s 747 mmHg 78%
    01:00 +16°C° 0.3 mm 3 m/s 747 mmHg 80%
    02:00 +16°C° 0.3 mm 3 m/s 746 mmHg 82%
    03:00 +16°C° 0.3 mm 2 m/s 746 mmHg 84%
    04:00 +16°C° 0.1 mm 2 m/s 746 mmHg 86%
    05:00 +16°C° 0.1 mm 2 m/s 745 mmHg 88%
    06:00 +16°C° 0.1 mm 2 m/s 745 mmHg 90%
    07:00 +17°C° 0.1 mm 2 m/s 745 mmHg 90%
    08:00 +17°C° 0.1 mm 3 m/s 745 mmHg 90%
    09:00 +18°C° 0.1 mm 3 m/s 745 mmHg 89%
    10:00 +18°C° 0.4 mm 3 m/s 745 mmHg 87%
    11:00 +18°C° 0.4 mm 4 m/s 746 mmHg 85%
    12:00 +18°C° 0.4 mm 4 m/s 746 mmHg 82%
    13:00 +19°C° 0.6 mm 4 m/s 746 mmHg 78%
    14:00 +19°C° 0.6 mm 4 m/s 746 mmHg 73%
    15:00 +20°C° 0.6 mm 5 m/s 746 mmHg 69%
    16:00 +19°C° 0.3 mm 4 m/s 746 mmHg 73%
    17:00 +17°C° 0.3 mm 3 m/s 747 mmHg 76%
    18:00 +16°C° 0.3 mm 2 m/s 747 mmHg 80%
    19:00 +16°C° 0.1 mm 2 m/s 747 mmHg 81%
    20:00 +15°C° 0.1 mm 2 m/s 748 mmHg 82%
    21:00 +14°C° 0.1 mm 2 m/s 748 mmHg 83%
    22:00 +14°C° 0 mm 2 m/s 749 mmHg 84%
    23:00 +13°C° 0 mm 2 m/s 749 mmHg 85%

    23 Septembre, Lundi

    Heure Température Précipitation Vent Pression Humidité
    00:00 +13°C° 0 mm 2 m/s 749 mmHg 86%
    01:00 +13°C° 0 mm 2 m/s 749 mmHg 87%
    02:00 +12°C° 0 mm 2 m/s 750 mmHg 87%
    03:00 +12°C° 0 mm 2 m/s 750 mmHg 88%
    04:00 +12°C° 0 mm 2 m/s 750 mmHg 89%
    05:00 +12°C° 0 mm 2 m/s 751 mmHg 90%
    06:00 +12°C° 0 mm 2 m/s 751 mmHg 91%
    07:00 +12°C° 0 mm 3 m/s 751 mmHg 87%
    08:00 +13°C° 0 mm 3 m/s 752 mmHg 82%
    09:00 +13°C° 0 mm 4 m/s 752 mmHg 78%
    10:00 +14°C° 0 mm 4 m/s 752 mmHg 73%
    11:00 +15°C° 0 mm 4 m/s 752 mmHg 68%
    12:00 +17°C° 0 mm 4 m/s 752 mmHg 63%
    13:00 +17°C° 0 mm 4 m/s 752 mmHg 63%
    14:00 +18°C° 0 mm 4 m/s 752 mmHg 63%
    15:00 +18°C° 0 mm 4 m/s 752 mmHg 63%
    16:00 +17°C° 0 mm 3 m/s 751 mmHg 67%
    17:00 +16°C° 0 mm 3 m/s 751 mmHg 71%
    18:00 +16°C° 0 mm 3 m/s 751 mmHg 74%
    19:00 +14°C° 0.2 mm 3 m/s 751 mmHg 78%
    20:00 +14°C° 0.2 mm 3 m/s 751 mmHg 82%
    21:00 +14°C° 0.2 mm 3 m/s 751 mmHg 85%
    22:00 +14°C° 0.3 mm 3 m/s 750 mmHg 87%
    23:00 +14°C° 0.3 mm 4 m/s 750 mmHg 89%
    Voir plus